Location: Fort Wayne
(41.1310°N, 85.1290°W)
Time: 21:41:12
(UTC-05:00)

Daily predictions for brighter satellites

Satellite Brightness Start Highest point End
(mag) Time Altitude Azimuth Time Altitude Azimuth Time Altitude Azimuth
Cosmos 990 Rocket 4.4 17:57:47 10° N 18:02:47 43° ENE 18:07:46 10° SE
OTV 4 1.5 18:02:33 10° WSW 18:05:21 38° S 18:08:08 10° E
Cosmos 2221 3.0 18:03:00 10° NNW 18:07:15 67° W 18:11:28 10° S
Cosmos 2333 Rocket 3.5 18:03:53 10° SE 18:07:47 19° E 18:11:41 10° NE
Cosmos 2298 Rocket 4.0 18:04:50 10° NNW 18:10:10 83° ENE 18:15:27 10° SSE
MSX 3.8 18:07:42 10° SSE 18:13:22 69° ENE 18:19:04 10° N
Cosmos 841 Rocket 4.0 18:12:08 10° S 18:17:01 41° ESE 18:21:57 10° NE
Cosmos 1766 Rocket 3.6 18:13:16 10° S 18:17:44 84° E 18:22:13 10° N
Cosmos 468 Rocket 4.2 18:17:41 10° SSW 18:22:52 75° WNW 18:28:03 10° NNE
Cosmos 2228 Rocket 3.2 18:19:05 10° N 18:23:22 50° E 18:27:40 10° SSE
CORIOLIS 4.3 18:19:38 10° SSE 18:24:59 83° WSW 18:30:22 10° NNW
Cosmos 1937 Rocket 3.5 18:19:52 10° NNW 18:25:04 85° ENE 18:30:18 10° SSE
COSMO-SKYMED 1 2.9 18:21:50 10° NNE 18:26:00 43° E 18:30:07 10° S
Cosmos 2322 Rocket 4.2 18:22:49 10° WSW 18:27:19 24° NW 18:31:50 10° N
YAOGAN 1 2.9 18:24:02 10° S 18:28:20 71° W 18:32:40 10° NNW
Cosmos 332 Rocket 4.2 18:23:56 10° S 18:28:26 41° ESE 18:33:00 10° NNE
Cosmos 2219 Rocket 2.7 18:24:03 10° S 18:29:13 38° ESE 18:34:24 10° NE
Cosmos 2278 Rocket 3.1 18:25:55 10° N 18:30:39 26° NE 18:35:21 10° ESE
BREEZE M DEB (TANK) 2.9 18:29:12 10° NW 18:31:59 24° N 18:33:07 16° NE
SL-14 R/B 4.5 18:29:38 10° SE 18:32:39 22° E 18:35:26 11° NE
Cosmos 1908 3.2 18:29:57 10° N 18:33:50 87° E 18:37:43 10° S
CENTAUR R/B 2.5 18:30:27 10° SSW 18:36:28 85° ESE 18:43:19 10° NE
Milstar 3 4.3 18:31:03 10° WSW 18:36:46 28° S 18:42:44 10° SE
Cosmos 2084 4.5 18:34:33 10° S 18:37:43 24° ESE 18:39:29 17° E
Cosmos 1484 Rocket 2.7 18:35:37 10° SSE 18:39:29 81° ENE 18:43:27 10° N
Cosmos 1408 Rocket 4.4 18:36:08 10° SSW 18:40:30 53° W 18:44:52 10° N
Cosmos 1844 3.9 18:35:08 10° NNW 18:40:44 51° ENE 18:46:22 10° SE
CZ-4 R/B 3.4 18:37:59 10° SSW 18:41:26 30° W 18:44:54 10° NW
Cosmos 389 Rocket 3.3 18:38:35 10° NNW 18:42:08 56° W 18:45:36 10° S
Tsikada Rocket 4.3 18:36:30 10° SSW 18:42:50 73° W 18:49:16 10° N
COSMOS 2428 2.8 18:41:56 10° SSW 18:47:40 82° WNW 18:53:25 10° NNE
Cosmos 2346 Rocket 4.4 18:41:34 10° S 18:47:48 73° E 18:54:03 10° NNE
Cosmos 1674 3.3 18:46:51 10° SSW 18:50:35 58° W 18:54:22 10° N
Lacrosse 5 rocket 2.9 18:48:14 10° NNW 18:50:39 16° NNE 18:50:59 16° NE
ALOS 3.3 18:51:20 14° ESE 18:54:00 23° ENE 18:57:40 10° NNE
Cosmos 2142 Rocket 4.5 18:49:31 10° N 18:55:55 69° E 19:02:14 10° SSE
Cosmos 2237 Rocket 2.7 18:51:39 10° S 18:56:48 39° ESE 19:00:18 19° NE
Hubble Space Telescope 3.4 18:55:59 10° SW 18:57:52 13° S 18:59:45 10° SSE
Meteor 2-2 Rocket 4.2 18:52:37 10° N 18:58:17 86° W 19:03:54 10° S
Cosmos 44 4.2 18:54:11 10° S 18:58:54 34° ESE 19:01:00 24° ENE
Cosmos 371 Rocket 3.2 18:55:04 10° S 18:59:48 63° ESE 19:03:53 14° NNE
SL-16 R/B 3.7 18:56:39 10° SE 18:59:32 17° ESE 18:59:32 17° ESE
Cosmos 1743 Rocket 3.9 18:56:30 10° SSW 19:00:56 68° W 19:05:25 10° N
Abrixas rocket 3.5 18:59:53 10° WNW 19:03:00 39° SW 19:06:06 10° SSE
Lacrosse 5 3.7 19:00:02 10° WNW 19:03:59 22° NNW 19:07:33 12° NNE
Cosmos 1300 2.7 19:00:16 10° N 19:04:03 58° E 19:07:49 10° SSE
Cosmos 1763 Rocket 4.0 19:01:36 10° SSW 19:06:46 59° WNW 19:11:54 10° NNE
Cosmos 1328 Rocket 4.4 19:04:47 10° NNW 19:09:06 53° W 19:13:24 10° S
Meteor 1-11 4.3 19:04:27 10° S 19:09:55 53° E 19:15:29 10° NNE
Cosmos 1328 3.7 19:08:50 10° S 19:12:46 85° W 19:16:45 10° N
Cosmos 1515 Rocket 4.0 19:09:12 10° NNW 19:13:38 64° W 19:18:02 10° S
Cosmos 2058 2.9 19:09:49 10° S 19:13:49 52° E 19:15:33 30° NNE
SKYMED 2 4.3 19:09:52 10° N 19:14:07 53° WNW 19:18:19 10° SSW
Cosmos 1634 Rocket 4.1 19:08:14 10° N 19:14:27 80° W 19:20:36 10° S
NOAA 12 4.0 19:09:38 10° SSE 19:14:51 79° ENE 19:20:07 10° N
Cosmos 372 Rocket 4.1 19:11:47 10° N 19:16:43 48° ENE 19:21:03 13° SE
Cosmos 44 Rocket 3.3 19:12:37 10° SSW 19:17:45 78° ESE 19:20:27 28° NE
Cosmos 1726 2.0 19:14:07 10° N 19:17:53 89° W 19:21:39 10° S
Cosmos 1805 Rocket 4.1 19:16:39 10° SSE 19:20:12 36° ESE 19:20:12 36° ESE
SJ-6B 2.7 19:18:48 10° SSE 19:22:49 79° ENE 19:26:56 10° N
FengYun 1-2 T 4.3 19:20:48 10° SE 19:26:11 53° ENE 19:31:34 10° N
Cosmos 2151 3.1 19:24:33 10° SSW 19:28:45 74° W 19:32:22 14° N
Meteor 1-28 Rocket 4.2 19:25:14 10° N 19:28:48 46° WNW 19:32:21 10° SSW
Cosmos 1151 Rocket 3.5 19:27:36 10° NNW 19:31:49 59° W 19:36:00 10° S
Cosmos 540 Rocket 3.3 19:27:57 10° SSW 19:33:07 86° ESE 19:35:55 28° NNE
Cosmos 1844 Rocket 3.8 19:28:19 10° NW 19:33:42 46° WSW 19:39:02 10° S
USA 215 3.7 19:28:09 10° SSE 19:34:37 62° SW 19:41:07 10° NW
Atlas Centaur 2 4.1 19:34:20 10° SW 19:35:49 11° SSW 19:37:13 10° S
Cosmos 1125 Rocket 3.6 19:32:03 10° NNW 19:37:16 76° WSW 19:42:26 10° SSE
BREEZE-M DEB (TANK) 3.4 19:37:13 10° W 19:38:41 26° WNW 19:38:41 26° WNW
OTV 4 2.2 19:38:23 10° WSW 19:40:16 30° SW 19:40:16 30° SW
Cosmos 1980 3.7 19:37:48 10° SSW 19:43:28 79° WNW 19:46:34 28° NNE
Resurs 01 Rocket 2.5 19:45:27 37° N 19:45:27 37° N 19:48:13 10° N
H-2A ROCKET BODY 3.9 19:25:45 10° WSW 19:45:44 36° SSW 19:49:07 23° SE
Spot 2 Rocket 3.3 19:43:47 10° SSE 19:48:49 75° ENE 19:53:51 10° N
Cosmos 304 Rocket 4.4 19:45:53 10° S 19:49:17 43° SSE 19:49:17 43° SSE
Cosmos 2333 Rocket 2.7 19:45:58 10° SW 19:51:31 58° WNW 19:54:54 24° N
Cosmos 1340 Rocket 3.3 19:50:48 10° SSW 19:54:03 54° SW 19:54:03 54° SW
NOSS 0 Rocket 4.3 19:49:30 10° SW 19:55:40 62° WNW 19:59:24 25° NNE
Timation 1 Rocket 4.2 19:52:50 10° NNW 19:58:51 67° ENE 19:58:52 67° ENE
FENGYUN 3A 3.6 19:57:22 10° S 20:02:43 81° WSW 20:08:07 10° NNW
Cosmos 2219 Rocket 3.8 20:08:14 10° WSW 20:13:12 31° WNW 20:16:42 17° N
Cosmos 2278 Rocket 3.1 20:09:31 10° NW 20:14:58 48° WSW 20:20:22 10° S
CENTAUR R/B 4.3 20:22:59 10° W 20:28:05 24° NNW 20:31:08 18° N
Nadezhda 4 Rocket 4.2 20:23:48 10° SSW 20:29:59 67° W 20:31:42 47° NNW
Lacrosse 5 rocket 4.1 20:26:28 10° NW 20:26:44 12° NW 20:26:44 12° NW
ALOS 3.6 20:26:56 10° SSW 20:31:14 36° W 20:35:33 10° NNW
Cosmos 2237 Rocket 3.7 20:35:59 10° WSW 20:40:55 31° WNW 20:42:11 28° NNW
SL-16 R/B 3.4 20:38:06 10° SW 20:41:30 37° SW 20:41:30 37° SW
